CDT,Max TemperatureF,Mean TemperatureF,Min TemperatureF,Max Dew PointF,MeanDew PointF,Min DewpointF,Max Humidity, Mean Humidity, Min Humidity, Max Sea Level PressureIn, Mean Sea Level PressureIn, Min Sea Level PressureIn, Max VisibilityMiles, Mean VisibilityMiles, Min VisibilityMiles, Max Wind SpeedMPH, Mean Wind SpeedMPH, Max Gust SpeedMPH,PrecipitationIn, CloudCover, Events, WindDirDegrees
2012-9-1,90,74,59,56,51,45,76,49,25,30.15,30.02,29.83,10,10,10,25,10,37,0.00,0,,149
2012-9-2,85,70,57,65,57,51,84,62,39,29.87,29.80,29.75,10,10,9,25,16,36,0.01,1,Rain-Thunderstorm,191
2012-9-3,85,66,48,57,51,42,91,63,28,30.00,29.91,29.86,10,10,7,21,8,28,0.17,2,Rain,234
2012-9-4,84,66,47,56,49,44,97,62,23,29.90,29.85,29.80,10,10,8,17,6,23,0.00,0,,267
2012-9-5,75,63,52,48,45,41,80,52,35,29.91,29.89,29.86,10,10,10,17,8,28,0.00,3,Rain,296
2012-9-6,67,57,48,57,52,44,94,80,57,30.04,29.97,29.91,10,10,10,10,5,,0.03,5,Rain,333
2012-9-7,69,58,48,49,45,41,89,65,37,30.14,30.10,30.05,10,10,10,18,9,23,0.00,5,,326
2012-9-8,68,56,43,47,43,40,90,59,39,30.19,30.05,29.92,10,10,10,28,13,33,0.00,2,,343
2012-9-9,75,55,36,46,40,34,95,59,26,30.24,30.13,29.94,10,10,10,15,6,,0.00,0,,196
2012-9-10,87,68,51,52,45,40,69,48,24,29.91,29.71,29.60,10,10,10,20,13,26,0.00,0,,176
2012-9-11,77,63,49,52,40,28,88,49,18,29.95,29.75,29.62,10,10,10,21,8,29,0.00,0,Rain,342
2012-9-12,71,58,45,35,27,16,57,34,13,30.23,30.10,29.96,10,10,10,29,13,39,0.00,0,,278
2012-9-13,71,54,36,36,31,27,80,43,21,30.34,30.29,30.22,10,9,0,18,6,24,0.08,1,Rain,360
2012-9-14,73,51,29,36,31,27,92,53,20,30.39,30.31,30.19,10,10,10,10,2,,0.00,0,,168
2012-9-15,84,64,45,45,39,32,66,43,20,30.17,29.95,29.84,10,9,3,15,8,,0.00,0,Rain,153
2012-9-16,61,50,40,45,40,33,77,60,45,30.14,30.08,29.91,10,10,10,20,13,24,0.00,4,Rain,353
2012-9-17,56,44,32,43,37,30,92,73,41,30.15,30.12,30.07,10,9,3,23,7,31,0.02,5,Rain,348
2012-9-18,62,47,33,40,35,30,91,64,31,30.09,29.91,29.62,10,10,10,18,7,26,0.00,3,,181
2012-9-19,64,54,43,44,38,30,69,49,29,29.93,29.75,29.58,10,10,10,26,16,38,0.00,4,,323
2012-9-20,64,52,40,43,35,30,83,55,33,29.97,29.92,29.87,10,10,10,16,9,23,0.00,4,Rain,307
2012-9-21,63,50,37,42,34,22,94,62,29,30.14,29.95,29.87,10,10,10,33,10,45,0.01,2,Rain,343
2012-9-22,56,42,28,31,28,22,83,61,33,30.35,30.29,30.16,10,10,10,16,10,23,0.00,1,,345
2012-9-23,63,42,21,31,23,18,87,54,21,30.35,30.25,30.05,10,10,10,8,3,,0.00,0,,261
2012-9-24,74,57,35,44,31,24,78,39,26,30.02,29.88,29.81,10,10,10,20,12,28,0.00,0,,322
2012-9-25,59,44,28,36,31,26,94,68,37,30.08,30.01,29.96,10,10,10,13,6,18,0.00,0,,355
2012-9-26,64,43,23,33,28,21,91,58,27,30.21,30.16,30.09,10,10,10,7,2,,0.00,0,,181
2012-9-27,75,56,36,36,32,27,71,45,23,30.20,30.15,30.09,10,10,10,16,8,,0.00,0,,169
2012-9-28,78,58,38,42,37,31,78,51,25,30.16,30.12,30.08,10,10,5,8,4,,0.00,0,,225
2012-9-29,84,61,39,42,33,25,83,49,13,30.11,30.06,29.97,10,9,6,15,3,20,0.00,0,,179
2012-9-30,83,66,49,48,39,32,61,40,26,30.01,29.91,29.86,10,10,10,17,9,26,0.00,0,,254